Zurück zum Katalog

STARLINK-4398

AktivKommunikationSSO
NORAD 53466·PAYLOAD·🇺🇸 United States

Gestartet Aug 12, 2022 von Vandenberg Space Force Base

Loading…

Nächste Überflüge (nächste 24 Stunden)

TLE

AktuellSource: CelesTrak SupGP

Epoche: Sep 14, 2026, 14:19 UTC

1 53466C 22099B   26257.59701389  .00000856  00000+0  23767-4 0  2574
2 53466  97.4821  24.3670 0000423 105.9818 317.1766 15.36959967    12

Verfolge STARLINK-4398 in Echtzeit mit AllMySat

Download on the App Store